TimeMDT,TemperatureF,Dew PointF,Humidity,Sea Level PressureIn,VisibilityMPH,Wind Direction,Wind SpeedMPH,Gust SpeedMPH,PrecipitationIn,Events,Conditions,WindDirDegrees,DateUTC
12:53 AM,61.0,41.0,48,29.95,10.0,West,6.9,-,N/A,,Clear,280,2012-09-30 06:53:00
1:38 AM,59.0,42.8,55,30.09,10.0,NNW,10.4,-,N/A,Thunderstorm,Thunderstorm,330,2012-09-30 07:38:00
1:53 AM,61.0,41.0,48,29.96,10.0,NW,5.8,-,N/A,,Overcast,310,2012-09-30 07:53:00
2:53 AM,55.9,43.0,62,29.96,10.0,WNW,9.2,-,0.00,,Clear,300,2012-09-30 08:53:00
3:53 AM,54.0,41.0,62,29.96,10.0,WNW,9.2,-,N/A,,Scattered Clouds,300,2012-09-30 09:53:00
4:53 AM,55.0,41.0,59,29.96,10.0,WNW,8.1,-,N/A,,Mostly Cloudy,300,2012-09-30 10:53:00
5:53 AM,54.0,41.0,62,29.97,10.0,WNW,9.2,-,N/A,,Clear,300,2012-09-30 11:53:00
6:53 AM,53.1,39.9,61,30.00,10.0,NW,9.2,-,N/A,,Clear,310,2012-09-30 12:53:00
7:53 AM,57.0,39.9,53,30.01,10.0,WNW,11.5,-,N/A,,Mostly Cloudy,300,2012-09-30 13:53:00
8:53 AM,57.9,41.0,53,30.02,10.0,WNW,11.5,-,N/A,,Partly Cloudy,300,2012-09-30 14:53:00
9:53 AM,72.0,41.0,33,30.01,10.0,WNW,11.5,-,N/A,,Partly Cloudy,300,2012-09-30 15:53:00
10:53 AM,73.0,39.0,29,30.01,10.0,NNW,15.0,18.4,N/A,,Partly Cloudy,330,2012-09-30 16:53:00
11:53 AM,77.0,36.0,23,29.99,10.0,NNW,12.7,21.9,N/A,,Clear,340,2012-09-30 17:53:00
12:53 PM,75.0,36.0,24,29.98,10.0,NNW,12.7,18.4,N/A,,Partly Cloudy,340,2012-09-30 18:53:00
1:53 PM,75.9,37.0,24,29.96,10.0,North,11.5,-,N/A,,Scattered Clouds,360,2012-09-30 19:53:00
2:53 PM,75.9,35.1,23,29.96,10.0,NNW,11.5,18.4,N/A,,Scattered Clouds,340,2012-09-30 20:53:00
3:53 PM,75.9,35.1,23,29.96,10.0,North,13.8,24.2,N/A,,Scattered Clouds,10,2012-09-30 21:53:00
4:53 PM,78.1,30.9,18,29.95,10.0,NNW,15.0,21.9,0.00,,Clear,340,2012-09-30 22:53:00
5:53 PM,75.9,30.9,19,29.96,10.0,NNW,6.9,-,N/A,,Clear,340,2012-09-30 23:53:00
6:53 PM,72.0,32.0,23,29.99,10.0,NNW,9.2,-,N/A,,Overcast,340,2012-10-01 00:53:00
7:53 PM,70.0,35.1,28,30.00,10.0,North,16.1,-,N/A,,Overcast,10,2012-10-01 01:53:00
8:53 PM,68.0,37.0,32,30.03,10.0,NNE,15.0,-,N/A,,Overcast,20,2012-10-01 02:53:00
9:53 PM,64.0,37.0,37,30.04,10.0,North,12.7,-,N/A,,Scattered Clouds,10,2012-10-01 03:53:00
11:53 PM,59.0,39.9,49,30.08,10.0,NW,6.9,-,N/A,,Overcast,310,2012-10-01 05:53:00